| time (UTC) | temp F | wind direction | speed MPH | gust MPH | rain 1hr in | rain 24hr in | rain mn in | humidity % | barometer mb |
| 20260510033535 | 70 | 338 | 2.0 | 10.0 | 0.00 | 0.00 | 0.00 | 45 | 1025.2 |
| 20260510033048 | 70 | 337 | 3.0 | 10.0 | 0.00 | 0.00 | 0.00 | 45 | 1025.4 |
| 20260510032536 | 70 | 356 | 2.0 | 7.0 | 0.00 | 0.00 | 0.00 | 46 | 1025.3 |
| 20260510032036 | 70 | 18 | 2.0 | 8.0 | 0.00 | 0.00 | 0.00 | 45 | 1025.6 |
| 20260510031546 | 70 | 332 | 4.0 | 8.0 | 0.00 | 0.00 | 0.00 | 46 | 1025.7 |
| 20260510031036 | 69 | 352 | 2.0 | 9.0 | 0.00 | 0.00 | 0.00 | 46 | 1025.7 |
| 20260510030536 | 69 | 359 | 3.0 | 9.0 | 0.00 | 0.00 | 0.00 | 46 | 1025.8 |
| 20260510030038 | 69 | 348 | 4.0 | 8.0 | 0.00 | 0.00 | 0.00 | 47 | 1025.9 |
| 20260510025536 | 68 | 29 | 4.0 | 8.0 | 0.00 | 0.00 | 0.00 | 47 | 1025.9 |
| 20260510025036 | 68 | 10 | 3.0 | 6.0 | 0.00 | 0.00 | 0.00 | 48 | 1026.0 |
| 20260510024546 | 67 | 28 | 3.0 | 8.0 | 0.00 | 0.00 | 0.00 | 50 | 1026.0 |
| 20260510024035 | 67 | 9 | 3.0 | 8.0 | 0.00 | 0.00 | 0.00 | 50 | 1026.1 |
| 20260510023535 | 67 | 51 | 3.0 | 8.0 | 0.00 | 0.00 | 0.00 | 50 | 1026.3 |
| 20260510023040 | 66 | 14 | 2.0 | 7.0 | 0.00 | 0.00 | 0.00 | 51 | 1026.3 |
| 20260510022536 | 67 | 29 | 3.0 | 7.0 | 0.00 | 0.00 | 0.00 | 51 | 1026.3 |
| 20260510022038 | 66 | 351 | 3.0 | 7.0 | 0.00 | 0.00 | 0.00 | 52 | 1026.4 |
| 20260510021538 | 65 | 0 | 3.0 | 6.0 | 0.00 | 0.00 | 0.00 | 52 | 1026.4 |
| 20260510021035 | 65 | 1 | 2.0 | 7.0 | 0.00 | 0.00 | 0.00 | 54 | 1026.5 |
| 20260510020536 | 64 | 345 | 2.0 | 11.0 | 0.00 | 0.00 | 0.00 | 56 | 1026.6 |
| 20260510020042 | 63 | 47 | 2.0 | 11.0 | 0.00 | 0.00 | 0.00 | 56 | 1026.6 |
| 20260510015536 | 63 | 20 | 2.0 | 6.0 | 0.00 | 0.00 | 0.00 | 56 | 1026.7 |
| 20260510015036 | 63 | 324 | 1.0 | 7.0 | 0.00 | 0.00 | 0.00 | 58 | 1026.8 |
| 20260510014538 | 62 | 29 | 2.0 | 8.0 | 0.00 | 0.00 | 0.00 | 58 | 1026.8 |
| 20260510014037 | 61 | 14 | 2.0 | 10.0 | 0.00 | 0.00 | 0.00 | 59 | 1026.7 |
| 20260510013536 | 61 | 18 | 2.0 | 10.0 | 0.00 | 0.00 | 0.00 | 60 | 1026.6 |
| 20260510013042 | 61 | 22 | 4.0 | 12.0 | 0.00 | 0.00 | 0.00 | 60 | 1026.6 |
| 20260510012536 | 61 | 53 | 2.0 | 12.0 | 0.00 | 0.00 | 0.00 | 60 | 1026.7 |
| 20260510012036 | 61 | 41 | 3.0 | 9.0 | 0.00 | 0.00 | 0.00 | 60 | 1026.7 |
| 20260510011553 | 60 | 5 | 4.0 | 11.0 | 0.00 | 0.00 | 0.00 | 60 | 1026.7 |
| 20260510011036 | 60 | 41 | 4.0 | 11.0 | 0.00 | 0.00 | 0.00 | 60 | 1026.8 |
| 20260510010536 | 59 | 81 | 3.0 | 11.0 | 0.00 | 0.00 | 0.00 | 61 | 1026.8 |
| 20260510010039 | 59 | 70 | 3.0 | 11.0 | 0.00 | 0.00 | 0.00 | 62 | 1026.7 |
| 20260510005535 | 58 | 81 | 4.0 | 11.0 | 0.00 | 0.00 | 0.00 | 62 | 1026.6 |
| 20260510005038 | 58 | 180 | 4.0 | 11.0 | 0.00 | 0.00 | 0.00 | 63 | 1026.6 |
| 20260510004550 | 57 | 87 | 6.0 | 12.0 | 0.00 | 0.00 | 0.00 | 63 | 1026.5 |
| 20260510004036 | 57 | 180 | 5.0 | 12.0 | 0.00 | 0.00 | 0.00 | 64 | 1026.6 |
| 20260510003536 | 57 | 180 | 5.0 | 15.0 | 0.00 | 0.00 | 0.00 | 64 | 1026.5 |
| 20260510003100 | 56 | 66 | 7.0 | 15.0 | 0.00 | 0.00 | 0.00 | 64 | 1026.6 |
| 20260510002535 | 56 | 58 | 7.0 | 17.0 | 0.00 | 0.00 | 0.00 | 64 | 1026.5 |
| 20260510002036 | 56 | 45 | 7.0 | 17.0 | 0.00 | 0.00 | 0.00 | 65 | 1026.4 |
| 20260510001543 | 56 | 58 | 6.0 | 20.0 | 0.00 | 0.00 | 0.00 | 65 | 1026.5 |
| 20260510001036 | 55 | 27 | 6.0 | 20.0 | 0.00 | 0.00 | 0.00 | 65 | 1026.5 |
| 20260510000536 | 55 | 68 | 6.0 | 16.0 | 0.00 | 0.00 | 0.00 | 66 | 1026.3 |
| 20260510000045 | 55 | 68 | 5.0 | 16.0 | 0.00 | 0.00 | 0.00 | 66 | 1026.5 |
| 20260509235535 | 55 | 87 | 7.0 | 15.0 | 0.00 | 0.00 | 0.00 | 66 | 1026.5 |
| 20260509235036 | 55 | 40 | 7.0 | 14.0 | 0.00 | 0.00 | 0.00 | 67 | 1026.5 |
| 20260509234557 | 54 | 180 | 8.0 | 14.0 | 0.00 | 0.00 | 0.00 | 66 | 1026.6 |
| 20260509234037 | 54 | 95 | 7.0 | 16.0 | 0.00 | 0.00 | 0.00 | 67 | 1026.4 |
| 20260509233536 | 54 | 81 | 7.0 | 16.0 | 0.00 | 0.00 | 0.00 | 67 | 1026.4 |
| 20260509233046 | 54 | 74 | 7.0 | 16.0 | 0.00 | 0.00 | 0.00 | 67 | 1026.3 |
| 20260509232535 | 54 | 83 | 8.0 | 16.0 | 0.00 | 0.00 | 0.00 | 68 | 1026.2 |
| 20260509232036 | 53 | 55 | 7.0 | 16.0 | 0.00 | 0.00 | 0.00 | 68 | 1026.2 |
| 20260509231550 | 53 | 110 | 7.0 | 16.0 | 0.00 | 0.00 | 0.00 | 68 | 1026.0 |
| 20260509231036 | 53 | 54 | 9.0 | 16.0 | 0.00 | 0.00 | 0.00 | 68 | 1026.0 |
| 20260509230536 | 53 | 74 | 7.0 | 15.0 | 0.00 | 0.00 | 0.00 | 68 | 1026.1 |
| 20260509230048 | 53 | 49 | 7.0 | 14.0 | 0.00 | 0.00 | 0.00 | 67 | 1026.1 |
| 20260509225536 | 54 | 89 | 6.0 | 15.0 | 0.00 | 0.00 | 0.00 | 67 | 1026.1 |
| 20260509225035 | 54 | 180 | 7.0 | 15.0 | 0.00 | 0.00 | 0.00 | 67 | 1026.1 |
| 20260509224542 | 53 | 70 | 6.0 | 16.0 | 0.00 | 0.00 | 0.00 | 68 | 1026.1 |
| 20260509224035 | 53 | 56 | 7.0 | 16.0 | 0.00 | 0.00 | 0.00 | 68 | 1026.2 |
| 20260509223536 | 53 | 64 | 7.0 | 16.0 | 0.00 | 0.00 | 0.00 | 68 | 1026.1 |
| 20260509223039 | 53 | 30 | 7.0 | 17.0 | 0.00 | 0.00 | 0.00 | 68 | 1026.1 |
| 20260509222536 | 53 | 85 | 9.0 | 17.0 | 0.00 | 0.00 | 0.00 | 69 | 1026.0 |
| 20260509222036 | 53 | 85 | 6.0 | 15.0 | 0.00 | 0.00 | 0.00 | 69 | 1025.8 |
| 20260509221539 | 53 | 180 | 7.0 | 15.0 | 0.00 | 0.00 | 0.00 | 68 | 1025.8 |
| 20260509221037 | 53 | 62 | 8.0 | 16.0 | 0.00 | 0.00 | 0.00 | 68 | 1025.7 |
| 20260509220536 | 53 | 180 | 7.0 | 16.0 | 0.00 | 0.00 | 0.00 | 68 | 1025.8 |
| 20260509220046 | 53 | 102 | 8.0 | 16.0 | 0.00 | 0.00 | 0.00 | 68 | 1025.6 |
| 20260509215536 | 52 | 180 | 8.0 | 16.0 | 0.00 | 0.00 | 0.00 | 68 | 1025.7 |
| 20260509215035 | 53 | 58 | 8.0 | 16.0 | 0.00 | 0.00 | 0.00 | 68 | 1025.6 |
| 20260509214540 | 53 | 65 | 8.0 | 16.0 | 0.00 | 0.00 | 0.00 | 68 | 1025.6 |
| 20260509214039 | 53 | 64 | 8.0 | 16.0 | 0.00 | 0.00 | 0.00 | 68 | 1025.6 |
| 20260509213535 | 53 | 81 | 7.0 | 13.0 | 0.00 | 0.00 | 0.00 | 68 | 1025.5 |
| 20260509213047 | 53 | 79 | 7.0 | 13.0 | 0.00 | 0.00 | 0.00 | 67 | 1025.5 |
| 20260509212538 | 53 | 180 | 7.0 | 14.0 | 0.00 | 0.00 | 0.00 | 67 | 1025.5 |
| 20260509212036 | 53 | 83 | 7.0 | 16.0 | 0.00 | 0.00 | 0.00 | 67 | 1025.5 |
| 20260509211543 | 53 | 68 | 8.0 | 16.0 | 0.00 | 0.00 | 0.00 | 66 | 1025.4 |
| 20260509211037 | 53 | 71 | 8.0 | 15.0 | 0.00 | 0.00 | 0.00 | 66 | 1025.5 |
| 20260509210536 | 54 | 70 | 5.0 | 15.0 | 0.00 | 0.00 | 0.00 | 66 | 1025.4 |
| 20260509210047 | 53 | 180 | 6.0 | 15.0 | 0.00 | 0.00 | 0.00 | 66 | 1025.4 |
| 20260509205535 | 53 | 62 | 7.0 | 14.0 | 0.00 | 0.00 | 0.00 | 67 | 1025.3 |
| 20260509205035 | 53 | 83 | 7.0 | 15.0 | 0.00 | 0.00 | 0.00 | 66 | 1025.3 |
| 20260509204539 | 53 | 106 | 8.0 | 15.0 | 0.00 | 0.00 | 0.00 | 66 | 1025.2 |
| 20260509204036 | 53 | 91 | 8.0 | 15.0 | 0.00 | 0.00 | 0.00 | 66 | 1025.1 |
| 20260509203537 | 53 | 94 | 8.0 | 15.0 | 0.00 | 0.00 | 0.00 | 66 | 1025.0 |
| 20260509203040 | 53 | 66 | 7.0 | 15.0 | 0.00 | 0.00 | 0.00 | 66 | 1024.9 |
| 20260509202536 | 53 | 81 | 8.0 | 16.0 | 0.00 | 0.00 | 0.00 | 66 | 1024.8 |
| 20260509202037 | 53 | 70 | 8.0 | 16.0 | 0.00 | 0.00 | 0.00 | 66 | 1024.9 |
| 20260509201540 | 53 | 68 | 8.0 | 15.0 | 0.00 | 0.00 | 0.00 | 66 | 1024.9 |
| 20260509201040 | 53 | 120 | 9.0 | 14.0 | 0.00 | 0.00 | 0.00 | 66 | 1024.9 |
| 20260509200538 | 53 | 85 | 7.0 | 14.0 | 0.00 | 0.00 | 0.00 | 66 | 1024.9 |
| 20260509200040 | 53 | 95 | 7.0 | 15.0 | 0.00 | 0.00 | 0.00 | 66 | 1024.9 |
| 20260509195536 | 53 | 95 | 7.0 | 15.0 | 0.00 | 0.00 | 0.00 | 66 | 1025.0 |
| 20260509195035 | 53 | 91 | 8.0 | 14.0 | 0.00 | 0.00 | 0.00 | 65 | 1025.0 |
| 20260509194542 | 53 | 75 | 8.0 | 14.0 | 0.00 | 0.00 | 0.00 | 65 | 1024.9 |
| 20260509194036 | 53 | 180 | 6.0 | 13.0 | 0.00 | 0.00 | 0.00 | 65 | 1024.9 |
| 20260509193536 | 54 | 180 | 7.0 | 13.0 | 0.00 | 0.00 | 0.00 | 64 | 1024.9 |
| 20260509193050 | 54 | 160 | 6.0 | 13.0 | 0.00 | 0.00 | 0.00 | 64 | 1025.0 |
| 20260509192535 | 54 | 180 | 7.0 | 13.0 | 0.00 | 0.00 | 0.00 | 64 | 1025.0 |
| 20260509192035 | 54 | 68 | 7.0 | 13.0 | 0.00 | 0.00 | 0.00 | 64 | 1025.0 |
| 20260509191540 | 54 | 77 | 7.0 | 13.0 | 0.00 | 0.00 | 0.00 | 64 | 1024.9 |
| 20260509191038 | 54 | 61 | 7.0 | 13.0 | 0.00 | 0.00 | 0.00 | 63 | 1025.0 |
| 20260509190535 | 54 | 180 | 7.0 | 13.0 | 0.00 | 0.00 | 0.00 | 63 | 1024.9 |
| 20260509190042 | 54 | 180 | 7.0 | 13.0 | 0.00 | 0.00 | 0.00 | 63 | 1025.0 |
| 20260509185536 | 54 | 81 | 7.0 | 13.0 | 0.00 | 0.00 | 0.00 | 63 | 1025.0 |
| 20260509185036 | 54 | 78 | 8.0 | 13.0 | 0.00 | 0.00 | 0.00 | 62 | 1025.0 |
| 20260509184537 | 54 | 180 | 7.0 | 14.0 | 0.00 | 0.00 | 0.00 | 62 | 1025.0 |
| 20260509184036 | 54 | 139 | 8.0 | 14.0 | 0.00 | 0.00 | 0.00 | 62 | 1025.0 |
| 20260509183540 | 55 | 57 | 8.0 | 14.0 | 0.00 | 0.00 | 0.00 | 61 | 1025.0 |
| 20260509183104 | 55 | 70 | 7.0 | 14.0 | 0.00 | 0.00 | 0.00 | 61 | 1024.9 |
| 20260509182536 | 55 | 180 | 6.0 | 14.0 | 0.00 | 0.00 | 0.00 | 61 | 1025.0 |
| 20260509182038 | 55 | 75 | 8.0 | 14.0 | 0.00 | 0.00 | 0.00 | 60 | 1025.0 |
| 20260509181557 | 55 | 180 | 6.0 | 14.0 | 0.00 | 0.00 | 0.00 | 60 | 1025.0 |
| 20260509181037 | 55 | 100 | 6.0 | 13.0 | 0.00 | 0.00 | 0.00 | 60 | 1025.1 |
| 20260509180536 | 56 | 115 | 5.0 | 13.0 | 0.00 | 0.00 | 0.00 | 60 | 1025.2 |
| 20260509180040 | 56 | 113 | 7.0 | 13.0 | 0.00 | 0.00 | 0.00 | 59 | 1025.2 |
| 20260509175536 | 56 | 114 | 6.0 | 13.0 | 0.00 | 0.00 | 0.00 | 59 | 1025.3 |
| 20260509175035 | 56 | 86 | 7.0 | 12.0 | 0.00 | 0.00 | 0.00 | 59 | 1025.3 |
| 20260509174547 | 56 | 180 | 6.0 | 11.0 | 0.00 | 0.00 | 0.00 | 59 | 1025.3 |
| 20260509174037 | 56 | 106 | 6.0 | 11.0 | 0.00 | 0.00 | 0.00 | 59 | 1025.3 |
| 20260509173535 | 56 | 118 | 6.0 | 12.0 | 0.00 | 0.00 | 0.00 | 58 | 1025.2 |
| 20260509173044 | 56 | 106 | 6.0 | 12.0 | 0.00 | 0.00 | 0.00 | 58 | 1025.2 |
| 20260509172536 | 56 | 117 | 5.0 | 12.0 | 0.00 | 0.00 | 0.00 | 57 | 1025.2 |
| 20260509172036 | 57 | 180 | 5.0 | 12.0 | 0.00 | 0.00 | 0.00 | 57 | 1025.2 |
| 20260509171544 | 57 | 180 | 5.0 | 10.0 | 0.00 | 0.00 | 0.00 | 57 | 1025.2 |
| 20260509171035 | 57 | 107 | 5.0 | 12.0 | 0.00 | 0.00 | 0.00 | 57 | 1025.2 |
| 20260509170539 | 57 | 118 | 5.0 | 13.0 | 0.00 | 0.00 | 0.00 | 56 | 1025.3 |
| 20260509170044 | 57 | 81 | 6.0 | 13.0 | 0.00 | 0.00 | 0.00 | 56 | 1025.3 |
| 20260509165536 | 57 | 74 | 5.0 | 12.0 | 0.00 | 0.00 | 0.00 | 56 | 1025.3 |
| 20260509165035 | 57 | 108 | 5.0 | 11.0 | 0.00 | 0.00 | 0.00 | 56 | 1025.2 |
| 20260509164540 | 57 | 180 | 4.0 | 12.0 | 0.00 | 0.00 | 0.00 | 56 | 1025.3 |
| 20260509164036 | 57 | 106 | 5.0 | 12.0 | 0.00 | 0.00 | 0.00 | 56 | 1025.3 |
| 20260509163538 | 57 | 47 | 5.0 | 11.0 | 0.00 | 0.00 | 0.00 | 56 | 1025.3 |
| 20260509163046 | 57 | 180 | 4.0 | 12.0 | 0.00 | 0.00 | 0.00 | 55 | 1025.4 |
| 20260509162535 | 57 | 180 | 6.0 | 12.0 | 0.00 | 0.00 | 0.00 | 55 | 1025.3 |
| 20260509162147 | 57 | 120 | 6.0 | 12.0 | 0.00 | 0.00 | 0.00 | 55 | 1025.4 |
| 20260509161544 | 57 | 180 | 6.0 | 12.0 | 0.00 | 0.00 | 0.00 | 55 | 1025.5 |
| 20260509161038 | 57 | 79 | 5.0 | 12.0 | 0.00 | 0.00 | 0.00 | 55 | 1025.4 |
| 20260509160535 | 57 | 105 | 6.0 | 12.0 | 0.00 | 0.00 | 0.00 | 55 | 1025.4 |
| 20260509160044 | 57 | 84 | 5.0 | 11.0 | 0.00 | 0.00 | 0.00 | 55 | 1025.4 |
| 20260509155534 | 57 | 180 | 5.0 | 11.0 | 0.00 | 0.00 | 0.00 | 55 | 1025.5 |
| 20260509155036 | 57 | 180 | 5.0 | 10.0 | 0.00 | 0.00 | 0.00 | 55 | 1025.5 |
| 20260509154554 | 57 | 92 | 4.0 | 11.0 | 0.00 | 0.00 | 0.00 | 54 | 1025.5 |
| 20260509154036 | 57 | 180 | 5.0 | 11.0 | 0.00 | 0.00 | 0.00 | 55 | 1025.6 |
| 20260509153535 | 57 | 94 | 4.0 | 12.0 | 0.00 | 0.00 | 0.00 | 54 | 1025.6 |
| 20260509153046 | 57 | 136 | 4.0 | 12.0 | 0.00 | 0.00 | 0.00 | 54 | 1025.6 |
| 20260509152536 | 57 | 98 | 4.0 | 9.0 | 0.00 | 0.00 | 0.00 | 54 | 1025.6 |
| 20260509152036 | 57 | 96 | 4.0 | 12.0 | 0.00 | 0.00 | 0.00 | 53 | 1025.6 |
| 20260509151550 | 58 | 74 | 4.0 | 12.0 | 0.00 | 0.00 | 0.00 | 53 | 1025.6 |
| 20260509151035 | 58 | 101 | 4.0 | 12.0 | 0.00 | 0.00 | 0.00 | 53 | 1025.6 |
| 20260509150535 | 58 | 131 | 4.0 | 11.0 | 0.00 | 0.00 | 0.00 | 52 | 1025.7 |
| 20260509150038 | 58 | 87 | 6.0 | 11.0 | 0.00 | 0.00 | 0.00 | 52 | 1025.8 |
| 20260509145535 | 58 | 103 | 4.0 | 11.0 | 0.00 | 0.00 | 0.00 | 52 | 1025.7 |
| 20260509145035 | 58 | 84 | 5.0 | 12.0 | 0.00 | 0.00 | 0.00 | 52 | 1025.8 |
| 20260509144543 | 58 | 92 | 5.0 | 15.0 | 0.00 | 0.00 | 0.00 | 52 | 1025.8 |
| 20260509144035 | 58 | 122 | 6.0 | 15.0 | 0.00 | 0.00 | 0.00 | 51 | 1025.7 |
| 20260509143535 | 59 | 139 | 7.0 | 15.0 | 0.00 | 0.00 | 0.00 | 51 | 1025.7 |
| 20260509143044 | 59 | 52 | 5.0 | 14.0 | 0.00 | 0.00 | 0.00 | 51 | 1025.8 |
| 20260509142535 | 59 | 89 | 5.0 | 14.0 | 0.00 | 0.00 | 0.00 | 51 | 1025.8 |
| 20260509142034 | 59 | 180 | 5.0 | 11.0 | 0.00 | 0.00 | 0.00 | 51 | 1025.7 |
| 20260509141539 | 59 | 99 | 7.0 | 11.0 | 0.00 | 0.00 | 0.00 | 51 | 1025.8 |
| 20260509141036 | 59 | 64 | 5.0 | 11.0 | 0.00 | 0.00 | 0.00 | 50 | 1025.8 |
| 20260509140535 | 59 | 180 | 5.0 | 11.0 | 0.00 | 0.00 | 0.00 | 50 | 1025.7 |
| 20260509140043 | 59 | 180 | 5.0 | 12.0 | 0.00 | 0.00 | 0.00 | 50 | 1025.7 |
| 20260509135537 | 59 | 114 | 6.0 | 12.0 | 0.00 | 0.00 | 0.00 | 50 | 1025.6 |
| 20260509135035 | 59 | 66 | 5.0 | 12.0 | 0.00 | 0.00 | 0.00 | 50 | 1025.7 |
| 20260509134544 | 59 | 79 | 5.0 | 12.0 | 0.00 | 0.00 | 0.00 | 49 | 1025.7 |
| 20260509134035 | 59 | 180 | 5.0 | 12.0 | 0.00 | 0.00 | 0.00 | 49 | 1025.7 |
| 20260509133535 | 59 | 106 | 5.0 | 12.0 | 0.00 | 0.00 | 0.00 | 49 | 1025.8 |
| 20260509133047 | 59 | 93 | 6.0 | 12.0 | 0.00 | 0.00 | 0.00 | 49 | 1025.7 |
| 20260509132535 | 59 | 113 | 6.0 | 11.0 | 0.00 | 0.00 | 0.00 | 48 | 1025.6 |
| 20260509132036 | 60 | 72 | 6.0 | 11.0 | 0.00 | 0.00 | 0.00 | 48 | 1025.6 |
| 20260509131540 | 60 | 97 | 7.0 | 14.0 | 0.00 | 0.00 | 0.00 | 48 | 1025.6 |
| 20260509131036 | 60 | 81 | 5.0 | 14.0 | 0.00 | 0.00 | 0.00 | 48 | 1025.6 |
| 20260509130536 | 60 | 79 | 6.0 | 11.0 | 0.00 | 0.00 | 0.00 | 48 | 1025.5 |
| 20260509130040 | 60 | 98 | 5.0 | 14.0 | 0.00 | 0.00 | 0.00 | 48 | 1025.5 |
| 20260509125536 | 60 | 62 | 6.0 | 14.0 | 0.00 | 0.00 | 0.00 | 48 | 1025.5 |
| 20260509125036 | 60 | 61 | 6.0 | 13.0 | 0.00 | 0.00 | 0.00 | 48 | 1025.6 |
| 20260509124538 | 60 | 110 | 7.0 | 13.0 | 0.00 | 0.00 | 0.00 | 48 | 1025.6 |
| 20260509124032 | 60 | 104 | 7.0 | 13.0 | 0.00 | 0.00 | 0.00 | 47 | 1025.5 |
| 20260509123537 | 60 | 102 | 5.0 | 13.0 | 0.00 | 0.00 | 0.00 | 48 | 1025.5 |
| 20260509123039 | 60 | 97 | 7.0 | 12.0 | 0.00 | 0.00 | 0.00 | 47 | 1025.5 |
| 20260509122536 | 60 | 85 | 6.0 | 14.0 | 0.00 | 0.00 | 0.00 | 48 | 1025.3 |
| 20260509122035 | 60 | 93 | 6.0 | 14.0 | 0.00 | 0.00 | 0.00 | 48 | 1025.3 |
| 20260509121545 | 60 | 108 | 6.0 | 12.0 | 0.00 | 0.00 | 0.00 | 47 | 1025.3 |
| 20260509121035 | 60 | 85 | 5.0 | 11.0 | 0.00 | 0.00 | 0.00 | 47 | 1025.3 |
| 20260509120535 | 60 | 81 | 6.0 | 13.0 | 0.00 | 0.00 | 0.00 | 47 | 1025.3 |
| 20260509120051 | 60 | 89 | 5.0 | 13.0 | 0.00 | 0.00 | 0.00 | 47 | 1025.3 |
| 20260509115534 | 60 | 91 | 6.0 | 12.0 | 0.00 | 0.00 | 0.00 | 47 | 1025.4 |
| 20260509115036 | 60 | 79 | 6.0 | 11.0 | 0.00 | 0.00 | 0.00 | 47 | 1025.4 |
| 20260509114548 | 60 | 85 | 5.0 | 11.0 | 0.00 | 0.00 | 0.00 | 47 | 1025.3 |
| 20260509114035 | 61 | 99 | 5.0 | 10.0 | 0.00 | 0.00 | 0.00 | 47 | 1025.3 |
| 20260509113535 | 61 | 97 | 5.0 | 12.0 | 0.00 | 0.00 | 0.00 | 46 | 1025.4 |
| 20260509113050 | 61 | 64 | 4.0 | 12.0 | 0.00 | 0.00 | 0.00 | 46 | 1025.3 |
| 20260509112535 | 61 | 116 | 4.0 | 12.0 | 0.00 | 0.00 | 0.00 | 47 | 1025.3 |
| 20260509112035 | 61 | 90 | 3.0 | 8.0 | 0.00 | 0.00 | 0.00 | 47 | 1025.5 |
| 20260509111551 | 61 | 105 | 3.0 | 9.0 | 0.00 | 0.00 | 0.00 | 47 | 1025.5 |
| 20260509111035 | 61 | 97 | 4.0 | 9.0 | 0.00 | 0.00 | 0.00 | 47 | 1025.5 |
| 20260509110537 | 61 | 86 | 4.0 | 8.0 | 0.00 | 0.00 | 0.00 | 47 | 1025.4 |
| 20260509110044 | 61 | 105 | 3.0 | 8.0 | 0.00 | 0.00 | 0.00 | 46 | 1025.4 |
| 20260509105535 | 61 | 106 | 3.0 | 8.0 | 0.00 | 0.00 | 0.00 | 46 | 1025.4 |
| 20260509105036 | 61 | 95 | 3.0 | 7.0 | 0.00 | 0.00 | 0.00 | 45 | 1025.4 |
| 20260509104544 | 62 | 70 | 3.0 | 7.0 | 0.00 | 0.00 | 0.00 | 45 | 1025.5 |
| 20260509104036 | 62 | 77 | 2.0 | 8.0 | 0.00 | 0.00 | 0.00 | 46 | 1025.6 |
| 20260509103534 | 62 | 99 | 3.0 | 8.0 | 0.00 | 0.00 | 0.00 | 45 | 1025.4 |
| 20260509103047 | 62 | 94 | 3.0 | 7.0 | 0.00 | 0.00 | 0.00 | 44 | 1025.5 |
| 20260509102535 | 62 | 106 | 3.0 | 7.0 | 0.00 | 0.00 | 0.00 | 45 | 1025.5 |
| 20260509102036 | 62 | 82 | 3.0 | 7.0 | 0.00 | 0.00 | 0.00 | 45 | 1025.5 |
| 20260509101551 | 62 | 94 | 3.0 | 6.0 | 0.00 | 0.00 | 0.00 | 45 | 1025.3 |
| 20260509101035 | 63 | 80 | 2.0 | 4.0 | 0.00 | 0.00 | 0.00 | 44 | 1025.4 |
| 20260509100535 | 63 | 0 | 2.0 | 4.0 | 0.00 | 0.00 | 0.00 | 44 | 1025.3 |
| 20260509100049 | 64 | 97 | 1.0 | 6.0 | 0.00 | 0.00 | 0.00 | 43 | 1025.3 |
| 20260509095535 | 64 | 98 | 2.0 | 6.0 | 0.00 | 0.00 | 0.00 | 42 | 1025.3 |
| 20260509095035 | 64 | 106 | 2.0 | 6.0 | 0.00 | 0.00 | 0.00 | 43 | 1025.3 |
| 20260509094543 | 64 | 93 | 2.0 | 6.0 | 0.00 | 0.00 | 0.00 | 42 | 1025.2 |
| 20260509094036 | 64 | 85 | 2.0 | 7.0 | 0.00 | 0.00 | 0.00 | 43 | 1025.3 |
| 20260509093539 | 65 | 79 | 1.0 | 7.0 | 0.00 | 0.00 | 0.00 | 42 | 1025.2 |
| 20260509093055 | 65 | 105 | 2.0 | 7.0 | 0.00 | 0.00 | 0.00 | 42 | 1025.1 |
| 20260509092536 | 65 | 93 | 2.0 | 6.0 | 0.00 | 0.00 | 0.00 | 41 | 1025.1 |
| 20260509092035 | 66 | 76 | 2.0 | 6.0 | 0.00 | 0.00 | 0.00 | 40 | 1025.2 |
| 20260509091548 | 66 | 105 | 2.0 | 6.0 | 0.00 | 0.00 | 0.00 | 40 | 1025.2 |
| 20260509091036 | 67 | 68 | 2.0 | 6.0 | 0.00 | 0.00 | 0.00 | 40 | 1025.1 |
| 20260509090536 | 67 | 78 | 1.0 | 4.0 | 0.00 | 0.00 | 0.00 | 40 | 1025.0 |
| 20260509090051 | 67 | 58 | 0.0 | 4.0 | 0.00 | 0.00 | 0.00 | 39 | 1025.0 |
| 20260509085535 | 68 | 60 | 1.0 | 4.0 | 0.00 | 0.00 | 0.00 | 38 | 1025.1 |
| 20260509085039 | 68 | 66 | 2.0 | 6.0 | 0.00 | 0.00 | 0.00 | 38 | 1025.1 |
| 20260509084554 | 68 | 58 | 1.0 | 6.0 | 0.00 | 0.00 | 0.00 | 38 | 1025.1 |
| 20260509084035 | 68 | 47 | 0.0 | 9.0 | 0.00 | 0.00 | 0.00 | 39 | 1025.0 |
| 20260509083534 | 69 | 0 | 2.0 | 9.0 | 0.00 | 0.00 | 0.00 | 39 | 1024.9 |
| 20260509083040 | 69 | 81 | 2.0 | 7.0 | 0.00 | 0.00 | 0.00 | 38 | 1024.9 |
| 20260509082535 | 69 | 64 | 2.0 | 8.0 | 0.00 | 0.00 | 0.00 | 38 | 1025.0 |
| 20260509082039 | 70 | 129 | 2.0 | 8.0 | 0.00 | 0.00 | 0.00 | 39 | 1024.9 |
| 20260509081542 | 70 | 76 | 2.0 | 11.0 | 0.00 | 0.00 | 0.00 | 38 | 1024.9 |
| 20260509081035 | 70 | 62 | 2.0 | 11.0 | 0.00 | 0.00 | 0.00 | 38 | 1024.9 |
| 20260509080535 | 70 | 81 | 2.0 | 9.0 | 0.00 | 0.00 | 0.00 | 38 | 1025.0 |
| 20260509080050 | 71 | 122 | 2.0 | 9.0 | 0.00 | 0.00 | 0.00 | 38 | 1024.9 |
| 20260509075535 | 71 | 77 | 1.0 | 6.0 | 0.00 | 0.00 | 0.00 | 39 | 1024.8 |
| 20260509075037 | 71 | 63 | 1.0 | 6.0 | 0.00 | 0.00 | 0.00 | 37 | 1024.8 |
| 20260509074538 | 72 | 45 | 1.0 | 7.0 | 0.00 | 0.00 | 0.00 | 36 | 1024.7 |
| 20260509074035 | 72 | 67 | 2.0 | 7.0 | 0.00 | 0.00 | 0.00 | 37 | 1024.7 |
| 20260509073536 | 72 | 349 | 2.0 | 12.0 | 0.00 | 0.00 | 0.00 | 37 | 1024.7 |
| 20260509073040 | 71 | 12 | 3.0 | 12.0 | 0.00 | 0.00 | 0.00 | 38 | 1024.6 |
| 20260509072537 | 71 | 58 | 3.0 | 12.0 | 0.00 | 0.00 | 0.00 | 37 | 1024.6 |
| 20260509072034 | 71 | 81 | 2.0 | 8.0 | 0.00 | 0.00 | 0.00 | 38 | 1024.5 |
| 20260509071542 | 71 | 116 | 2.0 | 8.0 | 0.00 | 0.00 | 0.00 | 39 | 1024.4 |
| 20260509071035 | 72 | 37 | 1.0 | 7.0 | 0.00 | 0.00 | 0.00 | 39 | 1024.3 |
| 20260509070535 | 72 | 139 | 2.0 | 8.0 | 0.00 | 0.00 | 0.00 | 39 | 1024.3 |
| 20260509070043 | 72 | 44 | 1.0 | 13.0 | 0.00 | 0.00 | 0.00 | 40 | 1024.2 |
| 20260509065535 | 73 | 0 | 3.0 | 13.0 | 0.00 | 0.00 | 0.00 | 40 | 1024.2 |
| 20260509065035 | 71 | 39 | 5.0 | 13.0 | 0.00 | 0.00 | 0.00 | 39 | 1024.1 |
| 20260509064547 | 71 | 113 | 4.0 | 13.0 | 0.00 | 0.00 | 0.00 | 40 | 1024.2 |
| 20260509064036 | 72 | 87 | 3.0 | 12.0 | 0.00 | 0.00 | 0.00 | 39 | 1024.2 |
| 20260509063536 | 71 | 360 | 3.0 | 12.0 | 0.00 | 0.00 | 0.00 | 40 | 1024.2 |
| 20260509063040 | 72 | 100 | 2.0 | 11.0 | 0.00 | 0.00 | 0.00 | 40 | 1024.1 |
| 20260509062535 | 72 | 0 | 3.0 | 12.0 | 0.00 | 0.00 | 0.00 | 40 | 1024.1 |
| 20260509062037 | 71 | 79 | 4.0 | 12.0 | 0.00 | 0.00 | 0.00 | 39 | 1024.2 |
| 20260509061552 | 71 | 75 | 4.0 | 12.0 | 0.00 | 0.00 | 0.00 | 39 | 1024.2 |
| 20260509061035 | 71 | 60 | 3.0 | 9.0 | 0.00 | 0.00 | 0.00 | 41 | 1024.2 |
| 20260509060534 | 72 | 127 | 2.0 | 8.0 | 0.00 | 0.00 | 0.00 | 39 | 1024.5 |
| 20260509060047 | 72 | 22 | 2.0 | 11.0 | 0.00 | 0.00 | 0.00 | 39 | 1024.5 |
| 20260509055535 | 72 | 79 | 2.0 | 11.0 | 0.00 | 0.00 | 0.00 | 38 | 1024.5 |
| 20260509055036 | 71 | 151 | 4.0 | 11.0 | 0.00 | 0.00 | 0.00 | 39 | 1024.6 |
| 20260509054550 | 72 | 210 | 3.0 | 10.0 | 0.00 | 0.00 | 0.00 | 39 | 1024.5 |
| 20260509054036 | 71 | 353 | 1.0 | 11.0 | 0.00 | 0.00 | 0.00 | 42 | 1024.6 |
| 20260509053536 | 71 | 70 | 4.0 | 11.0 | 0.00 | 0.00 | 0.00 | 40 | 1024.6 |
| 20260509053042 | 71 | 85 | 2.0 | 10.0 | 0.00 | 0.00 | 0.00 | 40 | 1024.7 |
| 20260509052535 | 71 | 59 | 3.0 | 11.0 | 0.00 | 0.00 | 0.00 | 41 | 1024.7 |
| 20260509052037 | 70 | 77 | 3.0 | 11.0 | 0.00 | 0.00 | 0.00 | 41 | 1024.9 |
| 20260509051541 | 69 | 108 | 3.0 | 14.0 | 0.00 | 0.00 | 0.00 | 43 | 1024.9 |
| 20260509051034 | 70 | 83 | 5.0 | 14.0 | 0.00 | 0.00 | 0.00 | 43 | 1025.0 |
| 20260509050534 | 70 | 102 | 5.0 | 11.0 | 0.00 | 0.00 | 0.00 | 43 | 1024.9 |
| 20260509050044 | 70 | 344 | 3.0 | 13.0 | 0.00 | 0.00 | 0.00 | 44 | 1025.0 |
| 20260509045535 | 70 | 62 | 3.0 | 13.0 | 0.00 | 0.00 | 0.00 | 44 | 1025.0 |
| 20260509045035 | 70 | 33 | 4.0 | 12.0 | 0.00 | 0.00 | 0.00 | 45 | 1025.0 |
| 20260509044544 | 70 | 119 | 4.0 | 11.0 | 0.00 | 0.00 | 0.00 | 44 | 1025.2 |
| 20260509044035 | 70 | 91 | 5.0 | 11.0 | 0.00 | 0.00 | 0.00 | 45 | 1025.3 |
| 20260509043535 | 69 | 103 | 3.0 | 9.0 | 0.00 | 0.00 | 0.00 | 46 | 1025.5 |
| 20260509043039 | 69 | 41 | 3.0 | 9.0 | 0.00 | 0.00 | 0.00 | 47 | 1025.5 |
| 20260509042536 | 69 | 58 | 3.0 | 9.0 | 0.00 | 0.00 | 0.00 | 46 | 1025.6 |
| 20260509042035 | 70 | 343 | 2.0 | 9.0 | 0.00 | 0.00 | 0.00 | 45 | 1025.8 |
| 20260509041546 | 69 | 74 | 4.0 | 9.0 | 0.00 | 0.00 | 0.00 | 47 | 1026.0 |
| 20260509041035 | 69 | 62 | 2.0 | 9.0 | 0.00 | 0.00 | 0.00 | 46 | 1026.2 |
| 20260509040534 | 68 | 94 | 3.0 | 9.0 | 0.00 | 0.00 | 0.00 | 46 | 1026.2 |
| 20260509040042 | 69 | 60 | 3.0 | 9.0 | 0.00 | 0.00 | 0.00 | 46 | 1026.3 |
| 20260509035537 | 69 | 49 | 2.0 | 10.0 | 0.00 | 0.00 | 0.00 | 46 | 1026.4 |
| 20260509035035 | 68 | 52 | 3.0 | 10.0 | 0.00 | 0.00 | 0.00 | 47 | 1026.6 |
| 20260509034543 | 68 | 56 | 3.0 | 9.0 | 0.00 | 0.00 | 0.00 | 47 | 1026.7 |
| 20260509034035 | 68 | 0 | 0.0 | 6.0 | 0.00 | 0.00 | 0.00 | 48 | 1026.7 |